カタログに戻る

FREGAT DEB

LostUNKNOWN
NORAD 46240·DEBRIS·🇷🇺 Russia

打ち上げ Jul 18, 2011 から Baikonur Cosmodrome

Loading…

次のパス (今後24時間)

TLE

古いSource: Space-Track

元期: May 17, 2022, 22:05 UTC

1 46240U 11037KA  22137.92047488  .00607816  00000-0  27410+0 0  9996
2 46240  50.2869 350.3563 0981628  77.5795 293.3008 12.83172993 13270

AllMySatでFREGAT DEBをリアルタイム追跡

Download on the App Store